Location: Lac de la Montange Noire
(46.1952°N, 74.2701°W)
Time: 01:22:09
(UTC-05:00)

Iridium 42 - Visible Passes

Search period start: 26 January 2015 00:00
Search period end: 05 February 2015 00:00
Orbit: 776 x 779 km, 86.4° (Epoch: 25 January)

Date Brightness Start Highest point End Pass type
(mag) Time Alt. Az. Time Alt. Az. Time Alt. Az.
26 Jan 8.6 03:15:49 10° ENE 03:16:25 10° ENE 03:17:21 10° ENE visible
26 Jan 5.6 04:53:01 10° N 04:58:16 75° E 05:03:29 10° S visible
26 Jan 7.0 06:35:27 10° NW 06:38:24 15° WNW 06:41:08 10° WSW visible
26 Jan 6.3 17:52:31 10° SSW 17:57:39 57° W 18:02:48 10° N visible
27 Jan 6.6 04:19:34 10° N 04:24:31 42° E 04:29:29 10° SSE visible
27 Jan 6.4 06:00:46 10° NNW 06:05:04 26° W 06:09:14 10° SW visible
27 Jan 5.5 17:18:46 10° S 17:23:58 82° E 17:29:13 10° N visible
27 Jan 8.4 19:02:42 10° W 19:05:31 14° WNW 19:08:07 10° NW visible
28 Jan 7.5 03:46:25 10° NNE 03:50:38 25° ENE 03:54:56 10° SE visible
28 Jan 5.7 05:26:39 10° NNW 05:31:37 44° W 05:36:31 10° SSW visible
28 Jan 7.9 18:27:13 10° SW 18:31:27 24° WNW 18:35:36 10° NNW visible
29 Jan 8.2 03:13:49 10° NE 03:16:34 15° ENE 03:19:32 10° ESE visible
29 Jan 5.3 04:52:50 10° N 04:58:05 79° W 05:03:17 10° S visible
29 Jan 7.3 06:37:00 10° WNW 06:38:00 10° WNW 06:38:41 10° W visible
29 Jan 7.0 17:52:37 10° SSW 17:57:33 41° W 18:02:28 10° N visible
30 Jan 6.4 04:19:15 10° N 04:25:59 42° SE 04:29:34 10° SSE visible
30 Jan 7.1 06:06:38 15° WSW 06:06:38 15° WSW 06:08:10 10° WSW visible
31 Jan 8.0 03:54:37 14° SE 03:54:37 14° SE 03:55:21 10° SE visible
31 Jan 7.5 05:35:13 13° SW 05:35:13 13° SW 05:35:52 10° SW visible
31 Jan 8.3 18:27:57 10° WSW 18:31:30 18° WNW 18:34:52 10° NNW visible
01 Feb8.703:22:52SE03:22:52SE03:11:28NNEvisible
01 Feb8.005:03:27SSW05:03:27SSW04:51:54Nvisible
01 Feb 7.6 17:52:55 10° SW 17:57:30 30° WNW 18:02:02 10° NNW visible
02 Feb8.404:31:28S04:31:28S04:18:02Nvisible
03 Feb 8.5 18:29:13 10° W 18:31:36 13° WNW 18:33:44 10° NW visible
04 Feb 8.1 17:53:27 10° SW 17:57:30 22° WNW 18:01:26 10° NNW visible
